Location: Unspecified
(43.4680°N, 87.1740°E)
Time: 14:34:07
(UTC+00:00)

Okean 2 - Pass Details

Date: 31 July 2021
Orbit: 558 x 577 km, 82.5° (Epoch: 18 September)

Event Time Altitude Azimuth Distance (km) Brightness Sun altitude
Rises 20:20:04 0° 346° (NNW) 2,802 7.6 -22.4°
Reaches altitude 10° 20:22:19 10° 341° (NNW) 1,897 6.5 -22.2°
Enters shadow 20:26:02 47° 282° (WNW) 769 3.8 -21.8°
